Simultaneous Nadir Overpasses (SNOs) Predictions

Prediction of SNOs near US between AQUA and NPP Satellite Orbit:

Table of predicted SNOs near US for the next 10.0 days since TLE Epoch: 6/8/2018
Index Date (AQUA) Time (AQUA) AQUA Lat,Lon Date (NPP) Time (NPP) NPP Lat,Lon Distance(km) Time Diff (sec)
1 06/09/2018 19:06:48 49.96, -92.52 06/09/2018 19:01:05 49.64, -94.36 137.13 343
2 06/09/2018 20:45:41 49.96,-117.24 06/09/2018 20:42:33 49.53,-119.69 182.42 188
3 06/15/2018 07:19:09 49.92, -75.98 06/15/2018 07:20:03 50.35, -78.11 159.21 54
4 06/15/2018 08:58:02 49.92,-100.70 06/15/2018 09:01:31 50.46,-103.43 203.67 209
5 06/17/2018 18:17:18 49.96, -80.16 06/17/2018 18:10:20 49.71, -81.70 114.18 418
6 06/17/2018 19:56:11 49.96,-104.88 06/17/2018 19:51:48 49.60,-107.02 159.41 263
7 06/17/2018 21:31:22 36.72,-124.99 06/17/2018 21:29:27 36.22,-127.52 233.05 115




NCC Satellite Simultaneous Nadir Overpasses (SNOs) Prediction Service
